GW5812 Weather Reports


time (UTC)temp
F
wind
direction
speed
knots
gust
knots
rain 1hr
in
rain 24hr
in
rain mn
in
humidity
%
barometer
mb
20260508002028 60 225 4.3 6.1 0.00 0.00 0.00 41 1030.3
20260508001028 60 248 0.9 1.7 0.00 0.00 0.00 42 1030.0
20260508000026 61 45 0.9 1.7 0.00 0.00 0.00 43 1029.7
20260507235026 62 203 3.5 6.1 0.00 0.00 0.00 49 1029.7
20260507234028 62 270 2.6 4.3 0.00 0.00 0.00 68 1029.7
20260507233026 64 293 1.7 2.6 0.00 0.00 0.00 64 1029.4
20260507232026 64 180 3.5 5.2 0.00 0.00 0.00 65 1029.2
20260507231028 63 180 1.7 2.6 0.00 0.00 0.00 68 1029.0
20260507230026 63 293 1.7 1.7 0.00 0.00 0.00 63 1028.9
20260507225026 65 225 2.6 3.5 0.00 0.00 0.00 60 1028.7
20260507224026 64 203 2.6 3.5 0.00 0.00 0.00 61 1028.6
20260507223026 65 248 2.6 3.5 0.00 0.00 0.00 60 1028.6
20260507222026 65 270 3.5 4.3 0.00 0.00 0.00 60 1028.4
20260507221026 66 248 4.3 4.3 0.00 0.00 0.00 58 1028.3
20260507220026 67 203 2.6 4.3 0.00 0.00 0.00 57 1028.1
20260507215028 65 248 2.6 3.5 0.00 0.00 0.00 58 1028.0
20260507214026 65 293 1.7 1.7 0.00 0.00 0.00 59 1028.1
20260507213026 65 225 3.5 4.3 0.00 0.00 0.00 59 1028.3
20260507212028 66 293 4.3 7.0 0.00 0.00 0.00 57 1028.1
20260507211025 63 248 5.2 6.1 0.00 0.00 0.00 60 1028.1
20260507210026 66 113 1.7 4.3 0.00 0.00 0.00 55 1028.0
20260507205026 64 203 2.6 2.6 0.00 0.00 0.00 60 1028.1
20260507204026 65 248 4.3 6.1 0.00 0.00 0.00 58 1028.1
20260507203030 67 270 1.7 1.7 0.00 0.00 0.00 54 1028.2
20260507202026 65 158 5.2 6.1 0.00 0.00 0.00 58 1028.1
20260507201026 67 203 7.8 8.7 0.00 0.00 0.00 55 1028.2
20260507200026 65 203 2.6 4.3 0.00 0.00 0.00 57 1028.4
20260507195026 64 225 2.6 2.6 0.00 0.00 0.00 60 1028.5
20260507194025 64 225 4.3 6.1 0.00 0.00 0.00 58 1028.6
20260507193026 64 225 5.2 6.1 0.00 0.00 0.00 57 1028.8
20260507192026 62 248 3.5 5.2 0.00 0.00 0.00 61 1029.1
20260507191030 61 158 4.3 5.2 0.00 0.00 0.00 63 1029.1
20260507190026 62 113 3.5 4.3 0.00 0.00 0.00 60 1029.2
20260507185025 62 90 3.5 4.3 0.00 0.00 0.00 61 1029.3
20260507184025 62 225 3.5 4.3 0.00 0.00 0.00 60 1029.3
20260507183026 62 45 1.7 2.6 0.00 0.00 0.00 59 1029.3
20260507182025 62 113 2.6 3.5 0.00 0.00 0.00 60 1029.4
20260507181028 62 225 3.5 4.3 0.00 0.00 0.00 61 1029.5
20260507180026 62 338 3.5 5.2 0.00 0.00 0.00 60 1029.7
20260507175026 61 180 5.2 6.1 0.00 0.00 0.00 63 1029.8
20260507174026 59 225 2.6 3.5 0.00 0.00 0.00 65 1029.9
20260507173026 58 158 1.7 1.7 0.00 0.00 0.00 67 1030.2
20260507172026 58 135 2.6 3.5 0.00 0.00 0.00 67 1030.3
20260507171028 58 68 3.5 4.3 0.00 0.00 0.00 66 1030.4
20260507170026 60 270 2.6 2.6 0.00 0.00 0.00 61 1030.6
20260507165026 58 68 6.1 7.0 0.00 0.00 0.00 67 1030.7
20260507164026 60 90 0.0 0.9 0.00 0.00 0.00 61 1030.8
20260507163025 58 158 0.0 0.9 0.00 0.00 0.00 64 1031.0
20260507162025 56 68 6.1 7.0 0.00 0.00 0.00 68 1031.1
20260507161026 56 23 3.5 4.3 0.00 0.00 0.00 69 1031.2
20260507160026 57 23 3.5 6.1 0.00 0.00 0.00 67 1031.4
20260507155026 56 315 4.3 5.2 0.00 0.00 0.00 67 1031.7
20260507154026 55 68 5.2 7.8 0.00 0.00 0.00 69 1031.8
20260507153026 55 45 2.6 4.3 0.00 0.00 0.00 69 1031.7
20260507152030 55 68 2.6 5.2 0.00 0.00 0.00 71 1031.8
20260507151028 54 68 3.5 4.3 0.00 0.00 0.00 72 1031.8
20260507150026 54 23 5.2 5.2 0.00 0.00 0.00 73 1031.8
20260507145028 53 45 5.2 6.1 0.00 0.00 0.00 73 1031.9
20260507144026 53 45 4.3 5.2 0.00 0.00 0.00 76 1032.0
20260507143026 53 68 4.3 6.1 0.00 0.00 0.00 78 1032.2
20260507142026 53 113 6.1 8.7 0.00 0.00 0.00 78 1032.3
20260507141028 53 45 4.3 6.1 0.00 0.00 0.00 78 1032.4
20260507140026 53 68 6.1 8.7 0.00 0.00 0.00 78 1032.5
20260507135026 54 68 4.3 6.1 0.00 0.00 0.00 77 1032.5
20260507134026 53 23 3.5 4.3 0.00 0.00 0.00 78 1032.5
20260507133028 53 360 5.2 7.8 0.00 0.00 0.00 77 1032.5
20260507132026 53 45 4.3 5.2 0.00 0.00 0.00 78 1032.6
20260507131025 53 68 5.2 6.1 0.00 0.00 0.00 80 1032.6
20260507130026 53 360 3.5 4.3 0.00 0.00 0.00 78 1032.6
20260507125030 53 90 3.5 4.3 0.00 0.00 0.00 81 1032.8
20260507124026 53 45 2.6 3.5 0.00 0.00 0.00 79 1032.6
20260507123026 53 23 7.8 8.7 0.00 0.00 0.00 80 1032.7
20260507122026 53 45 6.1 7.0 0.00 0.00 0.00 80 1032.6
20260507121025 53 68 5.2 6.1 0.00 0.00 0.00 81 1032.4
20260507120026 53 360 3.5 4.3 0.00 0.00 0.00 80 1032.2
20260507115026 53 338 2.6 4.3 0.00 0.00 0.00 79 1032.1
20260507114026 53 158 4.3 4.3 0.00 0.00 0.00 79 1032.2
20260507113026 53 68 6.1 6.1 0.00 0.00 0.00 78 1032.0
20260507112026 53 45 3.5 4.3 0.00 0.00 0.00 80 1032.0
20260507111026 53 338 2.6 2.6 0.00 0.00 0.00 80 1032.0
20260507110027 53 90 2.6 4.3 0.00 0.00 0.00 81 1031.9
20260507105026 53 360 6.1 7.8 0.00 0.00 0.00 81 1031.6
20260507104026 53 23 5.2 6.1 0.00 0.00 0.00 83 1031.7
20260507103026 53 23 7.0 9.6 0.00 0.00 0.00 83 1031.4
20260507102026 53 23 4.3 6.1 0.00 0.00 0.00 83 1031.7
20260507101028 53 45 4.3 6.1 0.00 0.00 0.00 85 1031.6
20260507100032 53 23 6.1 7.8 0.00 0.00 0.00 84 1031.8
20260507095026 53 45 5.2 6.1 0.00 0.00 0.00 83 1031.6
20260507094026 53 315 5.2 6.1 0.00 0.00 0.00 83 1031.5
20260507093026 53 45 2.6 3.5 0.00 0.00 0.00 83 1031.4
20260507092026 53 360 5.2 8.7 0.00 0.00 0.00 82 1031.3
20260507091026 53 68 7.8 8.7 0.00 0.00 0.00 83 1031.4
20260507090027 53 23 2.6 3.5 0.00 0.00 0.00 85 1031.3
20260507085025 53 45 6.1 8.7 0.00 0.00 0.00 85 1031.4
20260507084026 53 23 4.3 7.0 0.00 0.00 0.00 84 1031.2
20260507083026 53 23 6.1 7.8 0.00 0.00 0.00 84 1030.8
20260507082030 53 68 13.0 14.8 0.00 0.00 0.00 83 1031.1
20260507081026 54 45 5.2 6.1 0.00 0.00 0.00 85 1031.2
20260507080026 54 315 4.3 6.1 0.00 0.00 0.00 85 1031.4
20260507075026 54 45 6.1 6.1 0.00 0.00 0.00 84 1031.2
20260507074027 54 68 7.0 8.7 0.00 0.00 0.00 85 1031.2
20260507073026 55 23 4.3 4.3 0.00 0.00 0.00 86 1031.2
20260507072026 55 23 5.2 6.1 0.00 0.00 0.00 90 1031.0
20260507071026 55 68 11.3 13.0 0.00 0.00 0.00 88 1030.5
20260507070026 56 45 7.8 8.7 0.00 0.00 0.00 89 1030.7
20260507065026 56 45 10.4 12.2 0.00 0.00 0.00 89 1030.7
20260507064026 56 68 6.1 9.6 0.00 0.00 0.00 89 1030.5
20260507063028 56 45 8.7 13.0 0.00 0.00 0.00 89 1031.0
20260507062026 56 68 4.3 6.1 0.00 0.00 0.00 90 1030.9
20260507061026 56 45 6.1 7.8 0.00 0.00 0.00 89 1030.7
20260507060026 57 68 5.2 8.7 0.00 0.00 0.00 90 1030.7
20260507055026 57 45 7.8 8.7 0.00 0.00 0.00 91 1031.0
20260507054028 57 45 9.6 11.3 0.00 0.00 0.00 90 1030.9
20260507053026 58 45 5.2 6.1 0.00 0.00 0.00 90 1031.3
20260507052028 58 68 6.1 6.1 0.00 0.00 0.00 90 1030.7
20260507051026 59 45 4.3 6.1 0.00 0.00 0.00 91 1030.8
20260507050026 59 360 5.2 7.0 0.00 0.00 0.00 92 1030.5
20260507045026 60 23 4.3 4.3 0.00 0.00 0.00 92 1030.3
20260507044026 60 360 0.9 1.7 0.00 0.00 0.00 92 1030.1
20260507043026 60 360 4.3 5.2 0.00 0.00 0.00 91 1029.6
20260507042028 60 90 8.7 11.3 0.00 0.00 0.00 91 1029.1
20260507041028 61 23 4.3 7.0 0.00 0.00 0.00 91 1029.8
20260507040029 0 0.0 0.0 0.00 0.00 0.00 1030.2
20260507035026 62 23 2.6 3.5 0.00 0.00 0.00 89 1030.8
20260507034026 63 23 3.5 4.3 0.00 0.00 0.00 86 1030.9
20260507033025 63 23 4.3 6.1 0.00 0.00 0.00 83 1030.8
20260507032026 63 23 2.6 4.3 0.00 0.00 0.00 83 1030.7
20260507031028 63 45 2.6 3.5 0.00 0.00 0.00 83 1030.3
20260507030027 63 360 5.2 6.1 0.00 0.00 0.00 83 1030.2
20260507025026 64 45 6.1 7.0 0.00 0.00 0.00 83 1030.1
20260507024026 64 45 3.5 4.3 0.00 0.00 0.00 82 1030.5
20260507023025 64 45 0.0 0.9 0.00 0.00 0.00 83 1030.3
20260507022026 64 293 1.7 2.6 0.00 0.00 0.00 84 1030.0
20260507021025 64 270 1.7 2.6 0.00 0.00 0.00 85 1030.0
20260507020026 65 360 2.6 2.6 0.00 0.00 0.00 86 1029.8
20260507015028 65 90 3.5 4.3 0.00 0.00 0.00 85 1029.9
20260507014026 65 68 2.6 4.3 0.00 0.00 0.00 84 1029.5
20260507013026 65 45 2.6 3.5 0.00 0.00 0.00 85 1029.4
20260507012025 65 113 5.2 6.1 0.00 0.00 0.00 85 1029.0
20260507010026 66 360 6.1 7.0 0.00 0.00 0.00 82 1029.6
20260507005026 67 90 7.0 11.3 0.00 0.00 0.00 82 1029.6
20260507004026 67 360 1.7 1.7 0.00 0.00 0.00 85 1029.8
20260507003026 68 23 3.5 3.5 0.00 0.00 0.00 82 1029.7